User: anonymous   Login
Location: Unspecified
(0.0000°N, 0.0000°E)
Time: 12:47:57
(UTC+00:00)
Language:

SCISAT 1 - Orbit

View from above orbital plane
View from above orbital plane
View from above satellite
View from above satellite

Ground track
Ground track

The orbit data is extracted from the following two-line orbital elements,

1 27858U 03036A   18293.56473152 +.00000026 +00000-0 +86724-5 0  9998
2 27858 073.9318 300.6427 0009430 285.7505 074.2629 14.77218747818187
Epoch (UTC): 20 October 2018 13:33:12
Eccentricity: 0.0009430
inclination: 73.9318°
perigee height: 631 km
apogee height: 645 km
right ascension of ascending node: 300.6427°
argument of perigee: 285.7505°
revolutions per day: 14.77218747
mean anomaly at epoch: 74.2629°
orbit number at epoch: 81818

The dashed part of the orbit path shows where the satellite is in the earth's shadow,  

DLR